#timestamp,LO_Frequency,Hit,StdDev 
1506441615.4,286047007.2,N
1506441635.2,286047005.2,N
1506441655.1,286047001.4,N
1506441656.0,286047001.4,N
1506441675.8,286046999.8,N
1506441695.6,286046999.4,N
1506441715.5,286046999.1,N
1506441735.3,286046999.4,N
1506441755.1,286046998.2,N
1506441775.8,286047002.4,N
1506441795.7,286047000.4,N
1506441815.5,286047003.5,N
1506441835.3,286047003.2,N
1506441855.2,286047002.3,N
1506441875.0,286047000.7,N
1506441875.9,286047000.7,N
1506441895.7,286046996.5,N
1506441915.6,286046997.0,N
1506441935.4,286046997.9,N
1506441955.2,286046994.8,N
1506441975.1,286046994.1,N
1506441976.0,286046994.1,N
1506441995.8,286046993.1,N
1506442015.6,286046989.3,N
1506442035.5,286046989.6,N
1506442055.3,286046987.4,N
1506442075.1,286046989.3,N
1506442095.9,286046990.9,N
1506442115.7,286046988.8,N
1506442135.5,286046990.0,N
1506442155.3,286046986.8,N
1506442175.2,286046987.2,N
1506442195.0,286046988.8,N
1506442195.9,286046988.8,N
1506442215.7,286046986.9,N
1506442235.6,286046984.1,N
1506442255.4,286046986.9,N
1506442275.2,286046989.0,N
1506442295.1,286046991.3,N
1506442296.0,286046991.3,N
1506442315.8,286046991.1,N
1506442335.6,286046994.3,N
1506442355.5,286046994.5,N
1506442375.3,286046993.9,N
1506442395.1,286046998.7,N
1506442415.9,286047002.5,N
1506442435.7,286046996.5,N
1506442455.5,286046999.6,N
1506442475.4,286047001.2,N
1506442495.2,286046997.0,N
1506442515.0,286046997.7,N
1506442515.9,286046997.7,N
1506442535.8,286046994.8,N
1506442555.6,286046990.8,N
1506442575.4,286046990.9,N
1506442595.2,286046988.7,N
1506442615.1,286046986.9,N
1506442616.0,286046986.9,N
1506442635.8,286046989.5,N
1506442655.6,286046990.9,N
1506442675.5,286046986.9,N
1506442695.3,286046987.8,N
1506442715.1,286046987.5,N
1506442735.9,286046988.9,N
1506442755.7,286046992.7,N
1506442775.5,286046991.8,N
1506442795.4,286046996.3,N
1506442815.2,286046991.9,N
1506442835.0,286046992.0,N
1506442835.9,286046992.0,N
1506442855.8,286046992.1,N
1506442875.6,286046992.2,N
1506442895.4,286046998.2,N
1506442915.3,286047005.8,N
1506442935.1,286047004.6,N
1506442936.0,286047004.6,N
1506442955.8,286047004.8,N
1506442975.7,286047005.6,N
1506442995.5,286047006.0,N
1506443015.3,286047002.8,N
1506443035.1,286047000.1,N
1506443055.9,286046999.2,N
1506443075.7,286046999.3,N
1506443095.5,286046999.1,N
1506443115.4,286046996.8,N
1506443135.2,286046997.3,N
1506443155.0,286046995.7,N
1506443155.9,286046995.7,N
1506443175.8,286046995.1,N
1506443195.6,286046996.9,N
1506443215.4,286046996.6,N
1506443235.3,286046996.5,N
1506443255.1,286046997.0,N
1506443256.0,286046997.0,N
1506443275.8,286046996.9,N
1506443295.7,286046999.6,N
1506443315.5,286046997.7,N
1506443335.3,286046994.2,N
1506443355.2,286046992.7,N
1506443375.9,286046993.1,N
1506443395.7,286046990.5,N
1506443415.5,286046990.4,N
1506443435.4,286046988.8,N
1506443455.2,286046989.9,N
1506443475.0,286046986.9,N
1506443475.9,286046986.9,N
1506443495.8,286046987.8,N
1506443515.6,286046986.8,N
1506443535.4,286046985.4,Y
1506443555.3,286046996.0,P
1506443575.1,286046995.5,P
1506443595.8,286046994.3,P
1506443615.7,286046992.9,Y
1506443635.5,286046995.1,P
1506443655.3,286046997.8,P
1506443675.2,286046998.4,N
1506443695.9,286047001.3,N
1506443715.7,286047000.4,N
1506443735.6,286047001.1,N
1506443755.4,286047003.8,N
1506443775.2,286047004.0,N
1506443795.1,286047002.2,N
1506443796.0,286047002.2,N
1506443815.8,286047003.8,N
1506443835.6,286047001.8,N
1506443855.5,286047001.3,N
1506443875.3,286047002.2,N
1506443895.1,286047000.0,N
1506443915.8,286046998.5,N
1506443935.7,286046997.1,N
1506443955.5,286046995.2,N
1506443975.3,286046995.9,N
1506443995.2,286046993.5,N
1506444015.9,286046994.6,N
1506444035.7,286046996.3,N
1506444055.6,286046993.6,N
1506444075.4,286046992.6,N
1506444095.2,286046989.1,Y
1506444115.1,286046988.9,P
1506444116.0,286046988.9,N
1506444135.8,286046988.8,N
1506444155.6,286046988.8,N
1506444175.5,286046990.0,N
1506444195.3,286046989.4,N
1506444215.1,286046991.1,N
1506444235.9,286046987.5,Y
1506444255.7,286046999.6,P
1506444275.5,286046996.9,N
1506444295.4,286046997.8,N
1506444315.2,286046997.9,N
1506444335.0,286046997.4,N
1506444335.9,286046997.4,N
1506444355.7,286046996.9,N
1506444375.6,286046999.1,N
1506444395.4,286046997.7,N
1506444415.2,286046995.5,N
1506444435.1,286046995.5,N
1506444436.0,286046995.5,N
1506444455.8,286046995.5,N
1506444475.6,286046996.4,N
1506444495.5,286046997.8,N
1506444515.3,286046996.5,N
1506444535.1,286046997.0,N
1506444555.9,286046999.6,N
1506444575.7,286046999.5,N
1506444595.5,286046997.6,N
1506444615.4,286046997.2,N
1506444635.2,286046996.3,N
1506444655.0,286046992.4,Y
1506444655.9,286046992.4,P
1506444675.8,286046997.0,N
1506444695.6,286046998.6,N
1506444715.4,286047000.2,N
1506444735.2,286047000.4,N
1506444755.1,286046998.6,N
1506444756.0,286046998.6,N
1506444775.8,286047003.1,N
1506444795.7,286047008.6,Y
1506444815.5,286047009.3,P
1506444835.3,286047013.6,N
1506444855.1,286047010.4,N
1506444875.9,286047012.3,N
1506444895.7,286047012.9,N
1506444915.5,286047013.5,N
1506444935.4,286047015.4,Y
1506444955.2,286047001.5,P
1506444975.0,286047000.5,N
1506444975.9,286047000.5,N
1506444995.8,286047000.8,N
1506445015.6,286047002.6,N
1506445035.4,286047002.4,N
1506445055.3,286046999.1,N
1506445075.1,286046997.0,N
1506445076.0,286046997.0,N
1506445095.8,286046996.3,N
1506445115.7,286046995.3,N
1506445135.5,286046998.0,N
1506445155.3,286046995.1,N
1506445175.2,286046996.1,N
1506445195.9,286046996.0,N
